Location: Unspecified
(41.5000°N, 0.0000°E)
Time: 13:56:16
(UTC+00:00)

deb Explorer IX - Pass Details

Date: 21 June 2019
Orbit: 539 x 1111 km, 38.8° (Epoch: 18 August)

Event Time Altitude Azimuth Distance (km) Brightness Sun altitude
Rises 18:58:22 0° 279° (W) 3,906 ? 5.5°
Reaches altitude 10° 19:01:26 10° 272° (W) 2,907 ? 5.0°
Maximum altitude 19:07:48 36° 209° (SSW) 1,529 ? 3.9°
Drops below altitude 10° 19:13:31 10° 144° (SE) 2,599 ? 3.0°
Sets 19:16:07 0° 136° (SE) 3,447 ? 2.6°
